Monroe, WI

3:02 PM CDT on August 20, 2017 (GMT -0500)
Monroe Municipal

Weather History for KEFT - May, 2013

Change the Weather History Date:

Tuesday, May 14, 2013

  Actual Average Record
Temperature  
Mean Temperature 72 °F -  
Max Temperature 90 °F 0 °F 90 °F (2013)
Min Temperature 54 °F - 37 °F (2000)
Cooling Degree Days 7    
Growing Degree Days 22 (Base 50)    
Moisture  
Dew Point 46 °F    
Average Humidity 42    
Maximum Humidity 62    
Minimum Humidity 19    
Precipitation  
Precipitation 0.00 in - - ()
Sea Level Pressure  
Sea Level Pressure 29.73 in    
Wind  
Wind Speed 16 mph (SSW)    
Max Wind Speed 25 mph    
Max Gust Speed 33 mph    
Visibility 10 miles    
Events Rain    
Averages and records for this station are not official NWS values.
T = Trace of Precipitation, MM = Missing Value Source: NWS Daily Summary

Daily Weather History Graph

Daily Weather History Graph

Search for Another Location

Airport or City:

Trip Planner

Search our weather history database for the weather conditions in past years. The results will help you decide how hot, cold, wet, or windy it might be!

Date:

Astronomy

May. 14, 2013 Rise Set
Actual Time 5:37 AM CDT 8:13 PM CDT
Civil Twilight 5:04 AM CDT 8:45 PM CDT
Nautical Twilight 4:24 AM CDT 9:25 PM CDT
Astronomical Twilight 3:38 AM CDT 10:12 PM CDT
Moon 9:16 AM CDT (5/14) 11:59 PM CDT (5/14)
Length of Visible Light 15h 40m
Length of Day
14h 36m
Waxing Crescent, 19% of the Moon is Illuminated
May 14
Waxing Crescent
May 17
First Quarter
May 24
Full
May 31
Last Quarter
Jun 8
New

Hourly Weather History & Observations

Time (CDT) Temp. Heat Index Dew Point Humidity Pressure Visibility Wind Dir Wind Speed Gust Speed Precip Events Conditions
12:15 AM 57.4 °F - 35.1 °F 43% 29.90 in 10.0 mi South 15.0 mph - N/A   Clear
12:35 AM 57.2 °F - 35.8 °F 45% 29.89 in 10.0 mi South 13.8 mph - N/A   Clear
12:55 AM 57.2 °F - 36.5 °F 46% 29.88 in 10.0 mi South 15.0 mph - N/A   Clear
1:15 AM 57.4 °F - 36.5 °F 46% 29.87 in 10.0 mi South 16.1 mph 20.7 mph N/A   Scattered Clouds
1:35 AM 57.4 °F - 36.5 °F 46% 29.86 in 10.0 mi South 17.3 mph 23.0 mph N/A   Clear
1:55 AM 57.0 °F - 36.5 °F 46% 29.84 in 10.0 mi South 18.4 mph 24.2 mph N/A   Clear
2:15 AM 56.8 °F - 36.7 °F 47% 29.84 in 10.0 mi SSW 20.7 mph 27.6 mph N/A   Clear
2:35 AM 57.2 °F - 36.5 °F 46% 29.83 in 10.0 mi SSW 23.0 mph 29.9 mph N/A   Scattered Clouds
2:55 AM 57.2 °F - 36.9 °F 47% 29.81 in 10.0 mi South 21.9 mph 29.9 mph N/A   Mostly Cloudy
3:15 AM 57.0 °F - 37.0 °F 47% 29.80 in 10.0 mi SSW 23.0 mph 29.9 mph N/A   Scattered Clouds
3:35 AM 56.7 °F - 37.6 °F 49% 29.79 in 10.0 mi SSW 24.2 mph 33.4 mph N/A   Clear
3:55 AM 56.5 °F - 38.1 °F 50% 29.78 in 10.0 mi SSW 24.2 mph 33.4 mph N/A   Clear
4:15 AM 55.8 °F - 38.5 °F 52% 29.77 in 10.0 mi SSW 25.3 mph 32.2 mph N/A   Clear
4:35 AM 55.6 °F - 38.8 °F 53% 29.76 in 10.0 mi SSW 24.2 mph 29.9 mph N/A   Clear
4:55 AM 55.4 °F - 39.4 °F 55% 29.76 in 10.0 mi SSW 21.9 mph 27.6 mph N/A   Clear
5:15 AM 54.7 °F - 40.1 °F 58% 29.76 in 10.0 mi SSW 19.6 mph 25.3 mph N/A   Clear
5:35 AM 54.5 °F - 40.5 °F 59% 29.76 in 10.0 mi SSW 18.4 mph 24.2 mph N/A   Clear
5:55 AM 54.7 °F - 41.0 °F 60% 29.76 in 10.0 mi SSW 18.4 mph - N/A   Clear
6:15 AM 54.7 °F - 41.4 °F 61% 29.75 in 10.0 mi SSW 19.6 mph 24.2 mph N/A   Clear
6:35 AM 55.0 °F - 41.9 °F 61% 29.75 in 10.0 mi SSW 20.7 mph 25.3 mph N/A   Clear
6:55 AM 55.8 °F - 42.8 °F 62% 29.75 in 10.0 mi SW 17.3 mph 23.0 mph N/A   Clear
7:15 AM 57.2 °F - 43.9 °F 61% 29.76 in 10.0 mi SW 17.3 mph - N/A   Clear
7:35 AM 58.8 °F - 45.0 °F 60% 29.75 in 10.0 mi SW 17.3 mph 24.2 mph N/A   Clear
7:55 AM 60.6 °F - 46.0 °F 59% 29.75 in 10.0 mi SW 19.6 mph 23.0 mph N/A   Clear
8:15 AM 61.7 °F - 46.9 °F 58% 29.76 in 10.0 mi SW 13.8 mph - N/A   Clear
8:35 AM 63.1 °F - 48.2 °F 58% 29.76 in 10.0 mi SW 17.3 mph 20.7 mph N/A   Clear
8:55 AM 64.8 °F - 48.7 °F 56% 29.76 in 10.0 mi SW 15.0 mph - N/A   Clear
9:15 AM 66.2 °F - 49.5 °F 55% 29.75 in 10.0 mi SW 13.8 mph 17.3 mph N/A   Clear
9:35 AM 67.6 °F - 50.2 °F 54% 29.75 in 10.0 mi WSW 15.0 mph - N/A   Clear
9:55 AM 68.5 °F - 50.4 °F 52% 29.75 in 10.0 mi WSW 12.7 mph - N/A   Clear
10:15 AM 69.8 °F - 50.7 °F 51% 29.75 in 10.0 mi West 10.4 mph - N/A   Clear
10:35 AM 72.0 °F - 51.8 °F 49% 29.75 in 10.0 mi SW 12.7 mph - N/A   Clear
10:55 AM 74.3 °F - 51.3 °F 44% 29.76 in 10.0 mi WSW 12.7 mph - N/A   Clear
11:15 AM 75.2 °F - 51.8 °F 44% 29.76 in 10.0 mi WSW 10.4 mph - N/A   Clear
11:35 AM 76.5 °F - 51.3 °F 41% 29.77 in 10.0 mi WSW 10.4 mph - N/A   Clear
11:55 AM 78.6 °F - 52.3 °F 40% 29.77 in 10.0 mi WNW 5.8 mph - N/A   Clear
12:15 PM 79.9 °F - 52.2 °F 38% 29.76 in 10.0 mi WSW 8.1 mph - N/A   Clear
12:35 PM 81.1 °F - 50.4 °F 34% 29.76 in 10.0 mi WSW 6.9 mph - N/A   Clear
12:55 PM 82.8 °F - 51.1 °F 33% 29.76 in 10.0 mi SW 9.2 mph - N/A   Clear
1:15 PM 84.4 °F - 51.8 °F 32% 29.75 in 10.0 mi SW 5.8 mph - N/A   Clear
1:35 PM 86.0 °F - 48.7 °F 27% 29.75 in 10.0 mi West 9.2 mph - N/A   Clear
1:55 PM 86.9 °F - 46.6 °F 25% 29.75 in 10.0 mi West 4.6 mph - N/A   Clear
2:15 PM 87.6 °F - 47.7 °F 25% 29.75 in 10.0 mi West 5.8 mph - N/A   Clear
2:35 PM 88.2 °F - 45.5 °F 23% 29.75 in 10.0 mi WSW 5.8 mph - N/A   Clear
2:55 PM 88.5 °F - 48.6 °F 25% 29.75 in 10.0 mi Calm Calm - N/A   Clear
3:15 PM 89.4 °F - 45.3 °F 22% 29.74 in 10.0 mi WSW 6.9 mph - N/A   Clear
3:35 PM 89.8 °F - 42.1 °F 19% 29.72 in 10.0 mi SW 5.8 mph - N/A   Clear
3:55 PM 90.1 °F - 47.1 °F 23% 29.70 in 10.0 mi SSW 6.9 mph - N/A   Clear
4:15 PM 88.7 °F - 48.2 °F 25% 29.69 in 10.0 mi South 11.5 mph - N/A   Clear
4:35 PM 88.9 °F - 49.1 °F 25% 29.68 in 10.0 mi South 12.7 mph - N/A   Clear
4:55 PM 89.1 °F - 46.4 °F 23% 29.66 in 10.0 mi South 13.8 mph - N/A   Clear
5:15 PM 88.7 °F - 45.0 °F 22% 29.65 in 10.0 mi South 15.0 mph - N/A   Clear
5:35 PM 89.1 °F - 43.0 °F 20% 29.64 in 10.0 mi SSW 16.1 mph 19.6 mph N/A   Clear
5:55 PM 89.1 °F - 42.8 °F 20% 29.63 in 10.0 mi South 18.4 mph 24.2 mph N/A   Clear
6:15 PM 87.1 °F - 43.2 °F 21% 29.61 in 10.0 mi SSW 19.6 mph - N/A   Clear
6:35 PM 87.4 °F - 43.5 °F 22% 29.61 in 10.0 mi SSW 13.8 mph 20.7 mph N/A   Clear
6:55 PM 85.8 °F - 43.2 °F 22% 29.61 in 10.0 mi SSW 13.8 mph - N/A   Clear
7:15 PM 84.7 °F - 44.2 °F 24% 29.61 in 10.0 mi SSW 13.8 mph 18.4 mph N/A   Clear
7:35 PM 84.4 °F - 44.4 °F 25% 29.61 in 10.0 mi SSW 12.7 mph - N/A   Clear
7:55 PM 84.6 °F - 45.5 °F 25% 29.63 in 10.0 mi SSW 12.7 mph - N/A   Clear
8:15 PM 83.5 °F - 47.7 °F 29% 29.66 in 10.0 mi North - - N/A   Clear
8:35 PM 79.7 °F - 57.0 °F 46% 29.68 in 10.0 mi SSW 12.7 mph - N/A Rain Rain
8:55 PM 81.3 °F 81.2 °F 57.0 °F 43% 29.68 in 10.0 mi SW 16.1 mph 28.8 mph N/A Rain Light Rain
9:15 PM 78.4 °F - 57.4 °F 48% 29.68 in 10.0 mi South 16.1 mph - N/A Rain Rain
9:35 PM 76.8 °F - 58.6 °F 53% 29.63 in 10.0 mi South 19.6 mph - N/A Rain Light Rain
9:55 PM 77.2 °F - 59.0 °F 53% 29.64 in 10.0 mi South 18.4 mph - N/A   Clear
10:15 PM 79.0 °F - 58.1 °F 49% 29.64 in 10.0 mi South 17.3 mph 21.9 mph N/A   Clear
10:35 PM 77.9 °F - 58.5 °F 51% 29.63 in 10.0 mi South 13.8 mph - N/A   Clear
11:15 PM 76.8 °F - 57.6 °F 51% 29.62 in 10.0 mi SSW 15.0 mph - N/A   Clear
11:35 PM 76.5 °F - 57.2 °F 51% 29.62 in 10.0 mi SSW 17.3 mph 21.9 mph N/A   Clear
11:55 PM 77.0 °F - 56.3 °F 49% 29.63 in 10.0 mi SW 16.1 mph - N/A   Clear